カタログに戻る

STARLINK-3190

運用中通信VLEO
NORAD 49766·PAYLOAD·🇺🇸 United States

打ち上げ Dec 2, 2021 から Cape Canaveral Space Force Station

Loading…

次のパス (今後24時間)

TLE

最新Source: CelesTrak SupGP

元期: Sep 15, 2026, 01:48 UTC

1 49766C 21115AU  26258.07548611  .00029850  00000+0  85416-3 0  2585
2 49766  53.1585 355.1168 0001148  84.3857  70.3243 15.35378708    16

AllMySatでSTARLINK-3190をリアルタイム追跡

Download on the App Store